Cloud_Cover
5 5 3 4 5 5 35 5 5 5 3 5 5 5 45 5 3 0 0 0 0 0 0 0 0 0 0 0 0 0 0 0 0 0 0 4 5 5 4 0 0 5 41 15
22 5 2 5 9 51 5 5 5 8 5 5 5 9 5 3 4 2 4 0 2 68 99 91 100 1 0 0 0 0 4 0 0 0 0 0 2 5 5 5 0 0 100 35
5 5 2 3 4 5 5 5 5 5 4 2 5 12 5 5 3 5 0 3 99 100 100 57 100 100 71 38 0 0 42 40 0 0 0 0 0 4 0 0 0 0 97 99
5 1 1 0 0 0 4 0 1 5 5 5 5 5 5 5 4 0 0 80 100 100 96 100 100 100 100 100 89 0 22 96 0 0 0 0 0 0 0 0 0 0 5 100
4 2 3 6 11 1 52 5 5 5 79 80 3 26 5 0 0 0 0 80 28 100 100 100 100 100 100 100 100 5 25 100 51 0 0 0 0 0 0 0 0 0 5 29
5 5 4 51 4 5 5 5 36 68 51 76 1 4 30 23 1 0 0 0 12 59 85 100 100 100 100 100 100 100 97 100 49 38 31 2 0 0 0 0 0 0 0 3
84 5 5 5 93 86 75 87 34 82 83 11 5 7 5 1 2 4 16 47 98 98 100 100 100 100 100 100 100 100 100 100 99 60 92 96 25 0 0 0 0 0 0 0
85 8 24 5 69 100 90 26 79 76 86 62 13 12 92 5 79 100 86 100 71 100 100 100 100 100 100 100 100 100 99 97 89 100 17 41 68 5 0 0 0 0 0 0
100 99 5 5 47 23 51 95 48 73 11 92 17 52 83 100 100 100 100 100 100 100 100 100 100 100 100 100 100 100 100 81 69 100 100 100 100 94 54 60 61 89 54 23
95 88 7 3 4 14 88 46 88 96 94 100 100 100 100 100 97 100 100 100 100 100 99 88 100 100 100 100 100 100 100 100 100 100 100 100 100 99 96 84 100 100 98 77
100 96 81 6 20 69 70 100 100 100 100 100 96 100 100 57 96 100 100 100 100 100 91 100 100 100 100 100 100 100 100 100 100 100 100 100 100 100 100 100 100 100 100 100
76 51 51 23 59 94 100 100 63 78 91 67 70 32 95 84 79 100 100 100 100 100 100 100 80 17 100 100 100 100 100 100 100 100 100 100 100 100 100 100 100 100 100 100
7 15 15 99 38 13 27 92 93 96 90 100 100 100 99 98 100 100 100 57 85 100 63 63 33 86 94 69 100 100 100 100 100 100 100 100 100 100 100 100 100 100 100 100
5 5 5 5 5 5 5 5 17 24 79 81 22 14 44 100 91 79 72 5 13 15 48 33 52 65 48 100 99 86 98 100 100 100 100 100 100 100 100 100 100 100 100 100
2 5 0 1 2 1 1 2 1 2 3 29 2 5 3 16 76 100 99 49 82 100 100 19 95 7 10 27 58 100 100 86 100 100 100 100 100 100 100 100 100 100 100 100
0 3 0 0 0 0 0 0 0 0 0 0 0 0 1 5 5 5 5 96 100 100 80 100 100 55 6 8 77 77 100 100 100 91 94 100 100 100 100 100 100 100 100 100
0 0 1 4 0 0 0 0 0 0 0 0 0 0 5 4 5 5 1 5 2 83 5 8 26 10 14 58 60 89 69 100 100 100 100 100 100 100 100 100 100 100 100 100
0 5 5 7 15 37 4 4 2 0 0 5 3 0 0 0 0 0 0 3 0 0 0 0 0 2 0 3 3 5 8 93 100 95 66 100 100 100 100 100 100 100 100 100
4 5 5 6 5 12 15 40 60 5 4 4 5 4 0 0 0 0 0 0 1 2 0 0 3 5 5 2 0 0 0 0 4 11 18 21 100 100 100 100 100 100 100 100
97 100 89 76 30 60 8 12 93 100 100 100 100 100 5 0 0 0 1 5 5 5 5 5 5 5 5 5 0 0 0 0 0 1 9 5 18 81 100 100 100 100 100 100
100 95 79 100 100 100 100 100 99 100 89 100 81 20 5 5 4 1 0 1 12 37 5 5 5 4 5 5 2 0 0 0 0 0 0 0 5 6 66 73 100 100 100 100
89 99 86 20 36 100 100 100 100 100 100 100 100 15 5 3 5 5 0 0 0 0 4 5 5 0 1 5 0 0 5 3 0 0 0 0 0 0 2 5 5 17 69 100
5 7 6 38 13 100 100 100 100 100 100 100 100 100 97 5 5 5 0 0 0 0 0 3 5 3 5 4 0 0 5 4 0 0 0 0 0 0 0 0 0 0 0 3
7 3 95 71 1 50 71 100 100 100 100 100 100 100 100 72 5 1 0 0 0 0 0 3 0 0 4 5 4 5 5 5 0 0 0 0 0 0 0 0 0 0 0 3
4 26 97 100 5 25 5 98 100 100 100 100 100 100 100 100 62 6 4 0 0 0 0 0 0 0 0 2 5 30 5 5 0 0 0 0 0 0 0 0 0 1 2 5
36 87 91 92 34 90 17 100 100 100 100 100 100 100 100 100 100 62 5 1 0 0 0 0 0 0 4 4 5 5 28 99 66 18 4 2 0 0 0 4 4 5 5 5